Tracking 19562 objects as of 25-Mar-2019
HD Live streaming from Space Station
objects crossing your sky now

COSMOS 1544

Track COSMOS 1544 now!
10-day predictions
COSMOS 1544 is classified as:


NORAD ID: 14819
Int'l Code: 1984-027A
Perigee: 483.0 km
Apogee: 499.6 km
Inclination: 82.5 °
Period: 94.3 minutes
Semi major axis: 6862 km
RCS: 8.9 m2 (large)
Launch date: March 15, 1984
Source: Commonwealth of Independent States (former USSR) (CIS)
Launch site: PLESETSK MISSILE AND SPACE COMPLEX (PKMTR)
aabbcc
Your satellite tracking list
Your tracking list is empty




NASA's NSSDC Master Catalog

Two Line Element Set (TLE):
1 14819U 84027A   19083.13965297  .00000797  00000-0  28510-4 0  9990
2 14819  82.4806  98.7811 0012103 291.5048  68.4900 15.27220072914204
Source of the keplerian elements: AFSPC